GFSWCAN_sfc_temp_030.txt.gz
Temp
51 51 52 52 51 51 51 51 51 51 51 51 51 52 52 52 53 53 52 55 48 40 44 49 51 43 42 40 34 44 45 48 48 43 41 42 39 39 34 39 33 32 32 33 33 30 28 43 41 38 54 57 57 58
51 51 51 50 50 50 50 50 50 50 50 50 50 51 52 52 52 53 47 55 51 43 43 54 55 56 53 51 42 42 43 42 43 40 38 42 40 41 38 33 37 33 33 32 32 33 40 41 36 43 51 53 56 56
51 51 50 50 50 50 50 50 50 50 50 50 51 51 52 52 52 51 48 49 46 41 48 53 53 60 61 59 59 39 48 51 45 45 39 40 35 41 34 35 35 39 41 34 34 38 37 41 46 46 47 51 51 50
50 50 50 50 49 49 49 49 49 49 50 50 50 51 51 52 52 51 50 55 46 43 36 50 61 57 64 62 58 56 53 54 50 44 39 37 36 46 40 43 41 41 44 42 43 44 44 44 45 47 48 48 49 55
49 49 49 49 49 49 49 49 49 49 50 50 51 52 52 52 52 52 52 53 52 44 37 42 55 61 61 59 55 55 51 47 43 39 39 37 44 43 47 47 45 50 44 41 39 44 42 43 45 48 48 47 49 50
48 48 48 48 48 48 48 48 48 50 50 52 52 51 51 51 51 48 46 48 50 47 38 35 59 56 59 59 56 52 49 46 43 43 41 45 52 45 39 44 54 57 58 56 47 49 48 47 46 47 46 48 48 49
48 48 48 48 48 48 48 49 49 50 50 50 50 50 50 51 53 46 52 48 51 48 39 37 42 60 58 57 54 49 50 48 44 43 43 48 49 44 45 43 55 57 58 56 55 51 45 48 45 50 47 50 50 50
47 47 48 48 48 48 48 49 49 49 50 50 50 50 51 51 50 47 55 52 50 43 42 36 42 53 58 51 48 52 46 44 44 44 50 50 50 50 44 54 57 57 59 57 55 54 50 53 55 53 55 51 49 47
47 47 48 48 48 48 48 49 49 50 50 49 49 50 53 51 45 47 53 53 48 43 37 39 39 42 60 58 57 48 47 40 46 42 46 46 47 45 53 55 57 58 57 55 58 56 54 53 52 55 57 53 53 46
47 47 47 47 48 47 48 48 49 49 49 50 55 55 46 52 51 55 47 42 40 41 41 38 53 44 56 55 55 52 50 44 42 47 52 45 48 56 59 61 61 60 60 59 56 50 52 51 50 53 55 55 53 47
47 47 47 48 48 48 48 49 49 49 51 53 49 51 55 54 56 50 44 40 38 37 41 44 46 43 53 44 48 57 48 54 44 49 48 48 48 56 61 61 63 61 62 59 59 57 54 52 52 54 53 55 52 49
46 47 47 47 48 48 48 48 48 51 51 47 46 47 47 45 48 43 43 48 45 43 51 48 43 43 44 52 49 51 45 51 42 55 47 46 54 60 61 62 62 62 62 61 61 57 55 53 53 54 55 52 53 54
46 47 47 47 48 48 48 48 48 48 50 51 41 37 40 45 34 37 36 40 43 47 41 42 42 48 42 43 45 44 42 43 56 46 46 52 57 60 62 63 62 63 63 62 61 59 57 57 56 55 55 53 51 53
46 47 47 47 47 48 48 48 48 49 47 45 41 32 39 37 37 40 39 42 44 42 45 49 47 43 43 35 37 36 48 48 40 40 44 56 59 61 62 64 63 61 62 61 60 60 58 57 55 55 55 55 51 49
46 46 47 47 47 47 47 48 48 52 49 42 43 32 41 49 49 43 39 40 44 53 51 50 52 52 42 37 38 43 42 37 43 44 51 56 56 60 61 62 63 62 62 62 62 60 59 58 56 54 55 55 53 52
46 46 50 46 46 47 47 49 51 48 47 44 42 40 48 46 47 49 48 44 51 53 54 52 48 45 43 43 37 39 40 36 41 49 57 59 57 59 61 62 64 64 63 61 63 61 59 58 57 55 56 55 54 52
45 50 46 46 46 47 47 46 46 39 40 40 44 49 47 45 46 48 50 51 55 49 45 48 42 41 48 39 37 46 41 46 52 55 58 58 57 58 62 64 63 63 62 62 62 61 60 59 59 57 54 54 54 53
49 52 47 47 48 50 53 50 44 41 37 45 42 46 48 49 47 48 50 54 51 49 47 43 47 42 41 38 43 46 48 54 56 56 58 59 59 61 62 61 63 62 62 62 62 62 61 59 58 58 55 55 55 54
48 49 46 46 47 46 43 46 47 39 43 47 48 49 49 48 51 52 52 53 53 54 49 45 41 43 46 46 44 47 52 53 48 52 55 59 59 61 61 62 63 62 63 62 62 62 62 61 62 61 60 61 57 57
45 45 46 46 46 46 39 45 50 41 40 45 48 47 47 46 50 50 50 51 50 49 44 41 44 46 44 47 50 51 52 53 54 53 56 58 59 60 60 63 62 62 64 63 64 56 62 62 63 62 62 60 59 56
46 48 47 48 50 48 45 46 45 46 44 43 47 46 42 46 44 45 47 52 47 47 45 45 46 51 53 53 54 51 50 51 48 53 54 55 59 59 59 61 64 64 59 63 62 61 56 62 62 62 59 61 60 59
50 45 50 49 44 43 43 50 44 46 43 43 43 45 41 38 40 42 46 45 39 33 35 37 37 41 46 49 50 51 50 48 49 50 49 52 56 54 57 59 59 60 63 61 64 63 63 65 63 62 61 58 57 56
45 46 46 44 37 36 37 50 39 43 37 39 42 39 38 36 37 40 34 33 34 36 36 36 37 39 39 44 47 47 48 46 47 49 50 52 55 58 58 61 63 61 60 65 68 64 64 56 57 62 60 57 57 53
43 40 36 37 38 34 43 40 43 40 40 38 36 34 35 37 40 36 31 32 35 37 36 35 36 36 38 39 37 39 41 42 41 44 53 51 51 53 56 58 62 65 66 68 67 66 65 62 54 61 59 58 56 54
33 30 35 27 39 34 33 35 36 36 32 36 33 34 36 39 34 32 30 33 35 35 34 35 35 35 34 35 36 37 39 37 35 36 43 48 50 51 53 59 63 64 67 65 63 63 61 62 60 59 58 58 56 55
27 31 30 36 36 34 37 30 30 31 35 33 34 40 39 34 30 27 31 32 32 32 33 33 32 32 34 35 33 34 34 36 35 35 42 48 46 44 44 47 54 60 65 64 62 60 59 61 59 58 57 54 43 55
26 30 39 46 44 41 36 39 41 35 31 30 37 34 34 27 26 31 35 35 32 34 37 38 35 34 34 34 36 36 37 36 35 36 41 44 45 45 44 44 45 51 57 62 63 62 61 60 59 57 55 56 56 56
37 39 34 36 36 38 32 35 34 33 38 44 41 31 27 27 28 33 35 36 37 40 40 41 41 40 39 38 38 39 39 40 40 41 41 42 41 43 40 43 49 40 54 59 62 63 63 61 59 57 57 53 54 58
34 39 39 30 32 33 34 35 39 45 48 46 39 34 31 34 34 33 36 39 42 41 38 38 40 43 44 46 44 42 39 36 35 34 31 30 30 34 37 39 42 48 52 57 40 48 60 59 57 54 50 50 55 57
35 43 35 35 32 33 41 45 46 48 50 48 45 39 35 34 39 43 42 42 39 37 39 40 41 40 39 39 38 40 42 38 33 30 28 29 30 33 35 37 38 39 44 48 56 51 36 46 43 47 45 44 43 42
43 42 37 37 37 45 48 50 47 40 39 41 40 35 34 34 37 41 39 41 41 40 36 36 40 40 38 37 36 36 35 40 39 35 33 34 35 34 34 36 36 37 40 43 50 50 46 47 46 44 43 40 40 41
40 37 36 31 37 46 49 45 41 39 37 34 33 34 33 34 30 33 35 38 37 34 32 33 35 37 40 41 41 41 35 41 40 38 35 35 36 36 37 37 37 36 36 36 37 42 45 43 40 39 40 40 41 40
38 39 37 36 35 37 43 43 38 33 35 33 34 35 35 33 26 32 38 37 34 33 32 34 39 40 39 39 39 40 39 42 39 34 33 32 32 32 37 38 38 37 35 32 32 32 32 33 32 32 32 33 34 34

GFSWCAN_sfc_temp_033.txt.gz
Temp
51 51 52 51 51 51 51 51 51 51 51 51 51 51 52 52 52 53 56 60 50 45 54 57 57 48 47 46 37 48 48 49 51 45 45 45 44 46 39 44 36 33 32 34 34 30 29 47 42 37 54 54 52 59
51 51 51 51 50 50 50 50 50 50 50 51 51 52 52 52 52 53 50 63 58 46 50 59 58 58 56 55 47 45 47 44 50 41 40 46 42 46 42 33 40 33 35 33 33 34 45 45 40 42 42 43 51 58
51 51 50 50 50 50 50 50 50 50 50 50 51 51 52 52 52 52 55 60 54 44 48 58 60 63 66 63 62 42 50 51 47 45 40 38 37 46 35 40 38 40 45 33 35 41 39 43 45 46 52 54 55 61
51 50 50 50 50 49 49 49 49 50 50 51 51 51 52 52 53 52 55 61 52 45 38 56 67 60 66 63 59 57 56 57 53 46 40 38 36 50 45 47 42 48 47 42 43 41 45 44 43 44 48 50 50 52
50 50 50 49 49 49 49 49 49 49 50 50 51 52 52 52 52 54 58 56 55 47 43 48 57 66 68 66 61 59 54 51 47 40 39 38 42 44 54 53 44 54 46 41 36 43 42 41 44 47 46 48 50 51
49 49 49 49 49 49 49 49 49 50 50 50 51 51 51 51 51 55 47 55 53 48 39 36 63 61 65 64 58 55 55 50 43 41 41 45 55 47 41 43 56 60 59 55 44 48 46 45 46 48 46 49 49 50
49 48 48 48 48 49 49 49 49 50 50 50 51 50 50 51 55 52 50 48 53 51 39 37 46 60 65 63 58 55 54 50 45 41 41 49 50 53 47 43 58 59 55 59 57 50 44 48 47 50 50 50 50 50
48 48 48 48 48 48 48 49 49 50 50 50 50 50 50 51 50 51 58 53 52 44 42 37 44 55 64 55 49 54 47 47 44 43 46 47 51 52 42 56 59 61 58 55 58 53 50 56 58 53 51 50 47 47
48 48 48 48 48 48 48 48 49 49 50 50 50 51 52 48 47 49 53 52 49 44 37 38 40 45 61 59 59 53 52 41 49 41 47 54 52 43 53 60 60 60 57 55 58 55 55 55 59 53 50 48 45 45
47 47 48 48 48 48 48 49 49 49 50 50 55 58 50 51 53 57 48 43 41 41 40 37 54 44 56 54 54 50 51 45 41 51 58 51 50 60 63 65 63 61 62 59 54 52 51 52 57 55 51 48 46 46
47 47 47 48 48 48 49 49 49 49 52 60 56 57 57 57 60 55 46 40 39 37 40 47 50 45 57 47 49 54 51 51 45 50 52 48 49 56 64 64 65 63 64 61 59 58 53 55 57 58 52 50 46 46
47 47 47 47 48 48 49 48 48 53 55 50 48 50 52 49 51 44 42 48 45 44 48 48 44 46 49 51 46 53 46 53 45 62 53 46 54 61 64 64 64 63 63 62 61 58 54 56 60 59 57 55 47 47
47 47 47 47 48 48 48 48 48 48 50 58 47 41 44 46 35 39 40 47 44 40 42 43 41 44 49 47 44 44 43 44 58 51 48 53 59 63 64 65 64 64 63 63 60 60 57 55 58 59 55 56 56 48
46 47 47 47 48 48 48 48 48 50 52 51 46 34 43 41 44 45 41 40 43 47 48 52 49 45 45 37 38 34 46 51 44 43 45 56 58 62 63 65 64 62 61 61 60 60 60 58 57 58 57 56 56 55
46 47 47 48 47 47 47 48 48 54 54 48 49 34 46 54 55 58 56 53 55 54 53 52 54 54 45 37 35 39 40 40 45 45 51 60 61 62 61 62 62 64 61 61 62 60 61 59 58 57 57 56 55 55
46 45 50 47 47 47 47 51 57 57 53 50 48 45 52 49 50 53 53 50 55 55 57 52 50 46 43 40 36 41 41 38 44 51 54 62 60 63 61 63 63 65 65 64 64 62 62 60 59 59 59 57 55 55
44 55 47 47 47 47 48 53 54 46 47 45 49 55 52 50 48 49 51 51 58 53 45 45 39 39 42 39 38 46 39 40 44 51 56 59 59 61 63 61 64 63 62 64 64 63 62 63 62 60 56 58 57 56
51 54 48 47 49 53 57 55 52 48 43 50 47 50 52 53 50 51 53 54 51 51 48 42 46 39 34 34 38 37 42 47 52 55 57 58 59 61 65 63 63 64 60 64 65 64 63 62 61 59 58 59 59 58
50 51 46 46 48 50 51 51 54 44 49 52 54 54 53 51 53 54 54 55 55 56 52 50 41 40 39 43 43 45 48 50 50 55 56 56 59 55 58 62 65 65 63 62 64 64 64 64 64 64 64 64 61 61
46 46 46 46 47 52 44 50 56 47 46 51 53 51 50 49 53 53 53 54 52 50 44 45 45 42 39 44 51 51 51 54 53 53 56 58 60 57 53 53 60 64 64 64 65 55 62 64 66 66 66 63 62 61
43 50 47 50 54 53 51 54 51 52 51 48 51 50 49 52 47 42 45 48 39 36 34 35 35 40 45 50 55 54 54 53 49 48 51 54 58 59 55 55 59 55 62 62 61 61 59 61 66 66 64 64 64 63
53 48 54 51 50 48 48 57 50 53 49 49 49 51 45 41 44 43 48 40 37 36 35 35 35 37 38 44 45 49 48 47 50 51 49 53 58 59 57 56 55 54 56 63 64 62 65 63 66 66 66 63 61 61
46 49 51 49 42 41 40 57 45 49 41 42 47 44 42 43 46 51 40 39 36 37 38 37 37 39 40 43 44 45 46 43 43 45 51 55 59 62 61 58 59 52 55 52 62 66 63 57 61 66 65 63 62 59
43 44 41 42 42 38 48 45 48 44 46 42 40 37 40 43 48 41 34 35 36 39 37 36 37 36 40 42 38 39 41 39 37 38 44 49 53 58 61 59 59 61 64 68 53 56 67 64 59 66 64 63 61 59
35 34 37 30 44 39 39 39 41 40 37 41 38 39 41 47 38 36 32 34 36 36 36 37 37 36 36 37 39 40 42 37 34 34 39 44 47 51 53 55 57 62 64 61 62 55 58 64 66 65 63 63 60 59
28 36 33 40 41 39 41 36 34 36 41 38 40 44 42 38 33 30 33 35 35 34 35 35 35 35 37 38 36 36 36 38 37 35 37 39 40 39 39 42 46 53 56 52 51 59 58 64 65 63 63 60 46 60
28 32 42 52 50 47 43 45 48 41 36 35 40 39 37 29 28 32 39 40 35 37 40 42 41 38 38 39 41 41 42 42 39 37 39 39 38 40 36 35 36 41 47 51 56 56 59 64 62 59 62 63 62 62
38 44 39 40 42 43 36 40 39 39 42 48 44 35 30 31 32 37 38 41 42 45 45 46 47 47 45 44 44 44 44 45 47 45 42 43 41 39 37 38 39 36 44 50 48 52 53 59 59 60 60 62 61 62
39 45 45 38 37 36 37 40 43 49 54 52 42 38 36 38 38 39 43 45 46 44 43 44 46 48 49 49 48 49 45 42 36 33 34 36 38 38 37 36 38 39 41 44 41 43 51 52 57 59 61 60 60 61
40 47 40 39 35 36 45 50 49 52 56 54 51 46 40 40 45 50 49 47 43 41 42 44 47 47 45 44 43 44 47 44 40 34 29 31 33 35 36 37 38 38 39 42 44 51 39 52 47 50 48 48 47 42
48 48 42 42 41 49 51 50 49 49 51 46 46 43 38 39 42 44 43 44 44 42 41 41 44 45 44 43 42 41 40 46 43 41 38 39 39 38 38 39 40 39 38 38 39 41 45 48 50 47 47 44 42 43
46 44 42 37 41 51 53 50 45 45 41 37 36 37 37 36 32 34 39 41 40 36 34 36 37 40 44 46 46 46 37 46 44 41 39 40 39 40 41 41 41 40 39 37 34 36 37 36 37 39 41 41 41 42
43 45 44 42 40 41 46 46 42 38 38 36 37 37 37 35 29 33 40 40 37 36 36 39 42 44 44 44 43 45 42 47 41 33 34 34 33 34 39 39 41 39 37 36 35 34 32 31 31 32 32 33 34 35

GFSWCAN_sfc_temp_036.txt.gz
Temp
52 51 52 52 52 51 51 51 51 51 51 51 52 52 52 53 53 53 56 60 52 45 51 55 56 51 53 49 38 48 47 46 49 43 43 44 43 45 43 46 35 34 33 34 34 31 29 47 43 37 45 46 46 48
51 51 51 51 51 51 51 50 50 50 50 51 51 52 52 52 53 53 51 63 61 48 52 59 58 60 58 57 49 48 46 45 48 42 40 41 41 44 42 34 42 33 34 33 33 35 45 45 41 44 44 42 46 48
52 52 51 51 50 50 50 50 50 50 50 50 51 52 52 53 53 52 53 57 58 53 51 56 59 67 66 63 61 45 49 51 49 46 40 39 35 47 35 40 40 41 44 34 35 41 39 43 45 44 45 45 53 55
51 51 51 50 50 50 49 49 49 50 50 50 51 51 52 53 53 53 52 58 56 48 39 54 69 64 68 65 62 58 55 53 48 47 41 38 36 49 43 46 42 42 45 43 44 44 43 44 44 43 45 49 51 54
51 51 50 50 49 49 49 49 49 49 50 50 51 51 52 52 52 53 56 58 60 49 43 46 54 63 69 63 61 60 56 52 47 41 39 38 43 45 51 49 42 48 46 43 36 44 42 42 45 45 45 47 49 49
51 50 50 49 49 49 49 49 49 49 50 50 51 51 51 51 51 54 53 58 62 51 38 35 58 58 63 64 59 54 54 52 45 41 40 43 52 44 40 43 47 56 54 52 45 51 46 48 47 47 47 48 49 49
50 50 49 49 49 49 49 49 49 49 50 50 51 51 51 51 53 53 49 48 53 51 39 36 45 61 65 60 56 52 54 50 47 41 39 42 49 46 44 41 53 56 58 56 54 51 46 48 45 48 48 49 50 49
49 49 49 49 49 49 48 49 49 49 49 50 50 50 51 51 51 51 59 53 54 46 42 36 43 54 64 51 50 58 50 49 44 43 45 44 50 50 45 53 57 59 59 58 53 54 53 56 52 47 48 48 47 45
49 49 48 48 48 48 48 49 49 49 49 49 50 51 54 51 47 49 52 53 51 44 37 38 36 42 57 55 54 47 49 40 48 39 44 48 48 44 51 54 58 59 55 56 56 57 57 56 51 46 46 46 45 44
49 48 48 48 48 48 48 49 49 49 49 50 53 57 46 51 56 54 49 44 41 42 40 36 50 43 53 53 52 50 48 44 41 48 55 50 48 58 52 63 61 60 59 58 51 50 53 55 52 47 44 46 46 45
48 48 48 48 48 48 49 49 49 49 51 59 55 54 58 59 58 56 46 40 40 36 41 46 49 45 56 48 48 52 48 50 42 47 48 47 42 52 56 62 63 63 61 59 55 56 57 58 55 53 46 46 46 46
48 48 48 48 48 48 48 49 48 52 54 49 47 53 56 54 52 47 46 50 45 40 42 42 45 46 45 54 46 50 46 50 44 57 53 41 40 61 63 62 62 63 62 59 57 56 57 59 58 56 51 48 46 47
48 48 47 47 48 48 48 48 48 48 49 56 49 43 48 48 36 41 40 41 38 40 47 45 44 50 46 47 44 44 43 44 56 49 47 47 60 64 63 63 62 63 63 60 59 58 58 59 59 57 56 51 48 46
47 47 47 47 47 48 48 48 48 50 50 53 49 32 44 44 46 48 49 49 53 53 53 53 50 50 50 43 38 35 46 48 42 42 40 43 58 59 64 64 62 61 62 60 60 58 59 58 57 57 57 58 52 47
47 47 47 47 48 48 48 48 48 53 53 49 51 34 47 54 56 56 56 51 52 55 54 52 53 54 48 40 36 36 36 37 44 43 45 50 62 60 63 61 56 59 61 60 60 60 59 59 58 56 56 56 56 52
47 46 48 49 47 47 48 50 54 57 55 51 50 47 53 50 50 52 52 51 56 52 54 54 47 46 46 40 34 37 35 35 38 44 48 55 58 57 62 62 57 57 62 62 60 60 59 59 56 56 57 55 56 56
46 48 48 47 47 48 48 51 56 50 49 48 49 55 54 52 50 51 51 52 57 52 46 46 38 34 43 34 36 33 32 34 41 42 49 55 56 55 55 59 61 60 62 62 61 61 60 60 60 58 54 55 55 55
47 51 48 47 49 53 56 54 54 50 46 51 49 53 54 54 51 52 53 55 52 48 49 42 47 39 35 31 32 35 40 44 47 47 52 54 56 58 54 51 53 62 61 57 60 61 60 59 58 57 58 57 55 55
47 51 47 47 48 49 52 53 55 46 51 54 56 56 55 54 56 56 56 55 56 56 53 49 41 37 34 35 36 38 41 44 46 51 54 55 54 58 58 52 53 56 60 60 59 61 62 60 61 63 63 63 60 58
46 46 47 47 47 52 48 51 57 49 47 52 55 53 53 53 53 53 51 51 50 42 42 38 32 33 34 38 45 44 45 49 51 49 52 56 58 58 56 54 52 51 51 62 63 57 62 63 65 66 64 62 60 59
45 51 48 49 53 54 53 54 52 53 53 51 55 53 53 54 49 47 45 49 42 37 34 35 34 36 40 44 46 47 45 45 46 48 50 52 57 60 59 54 51 50 50 50 63 61 59 63 63 64 63 63 62 61
51 49 54 51 51 51 50 57 52 55 52 53 52 54 49 44 45 46 49 40 38 36 35 35 36 37 38 41 42 44 44 44 46 47 46 49 53 55 58 58 57 53 49 50 51 59 62 62 65 65 64 62 60 59
48 50 51 51 45 42 41 58 48 51 44 47 50 46 46 44 47 53 40 40 37 40 39 37 38 39 39 43 44 44 43 41 39 40 41 45 50 55 58 61 62 55 52 56 55 51 51 54 56 62 63 62 60 58
44 46 44 43 43 39 50 47 49 46 47 43 43 41 43 45 50 44 36 37 38 42 40 39 40 40 43 43 40 40 40 40 39 38 38 41 44 47 50 53 56 59 55 54 52 52 52 53 57 61 62 62 60 58
36 36 37 32 45 42 42 43 43 42 40 43 41 41 43 48 37 37 34 38 39 38 38 40 40 39 37 39 41 41 43 41 37 35 37 38 40 41 42 45 49 52 48 48 47 48 52 53 54 64 62 62 60 59
29 38 34 40 41 41 43 39 38 38 42 42 42 46 45 41 35 31 35 38 37 37 37 38 38 39 40 41 38 39 40 45 43 37 37 37 36 35 33 35 36 41 45 43 45 46 49 53 51 57 62 60 47 59
29 33 43 51 50 49 45 47 49 42 40 39 42 41 39 30 30 34 40 39 38 40 44 46 45 43 42 43 45 47 47 48 45 40 40 40 39 39 37 34 33 37 40 42 45 47 47 51 52 50 56 62 62 62
36 44 39 42 45 47 40 42 42 41 44 49 45 38 32 33 32 38 40 45 48 48 49 49 50 50 48 47 49 48 47 47 47 47 45 44 44 42 41 41 42 36 41 42 41 44 47 49 51 49 53 59 54 61
39 46 48 40 40 40 41 42 44 50 55 52 43 41 39 42 38 42 46 47 49 47 45 46 47 51 51 51 49 49 45 42 38 35 34 35 38 39 42 41 41 42 42 41 37 39 44 45 50 55 52 56 59 58
41 49 42 42 37 36 44 50 51 55 56 53 49 45 43 41 44 50 48 47 45 44 45 46 47 47 46 46 45 46 48 44 40 36 32 33 37 41 40 40 39 40 41 41 39 41 39 46 48 51 51 50 46 42
49 48 43 42 42 48 53 54 54 53 52 51 49 44 40 41 43 46 45 46 47 44 43 42 43 44 44 44 42 42 40 47 44 42 40 41 42 41 40 40 41 40 39 39 39 37 39 39 42 45 47 45 44 45
47 44 44 40 43 50 53 50 46 45 45 43 41 40 39 37 32 36 41 43 41 38 35 38 38 39 44 46 46 47 37 46 43 42 41 40 39 40 42 41 41 39 38 36 36 35 35 34 34 36 37 37 38 38
45 48 46 44 43 44 47 45 42 40 41 38 39 40 39 36 29 34 41 40 38 37 38 40 43 44 44 44 44 45 42 47 41 34 35 33 32 33 38 38 38 38 36 34 33 33 32 31 31 30 31 31 32 33

GFSWCAN_sfc_temp_042.txt.gz
Temp
52 52 52 52 52 51 51 51 51 51 51 51 51 52 52 52 53 47 41 42 39 37 40 44 44 38 36 36 34 36 37 38 34 31 34 32 29 35 32 35 25 27 27 28 32 29 25 42 40 34 40 43 44 44
51 51 51 51 51 51 51 50 50 50 50 50 51 51 52 52 52 51 39 44 45 38 37 46 47 49 47 47 43 36 40 41 41 36 37 36 34 35 31 25 36 29 34 32 32 31 40 42 39 43 44 41 43 43
52 52 51 51 51 51 50 50 50 50 50 50 50 51 52 52 52 50 43 42 39 37 39 38 41 49 51 51 54 38 40 46 43 44 39 38 33 37 30 33 35 41 42 34 34 38 37 40 44 45 46 44 45 46
51 51 51 51 51 50 50 50 50 50 50 50 50 51 51 52 52 51 45 43 42 40 33 35 50 48 54 51 51 52 50 48 44 44 40 37 34 41 35 39 36 40 39 38 37 41 42 44 44 45 45 46 46 49
51 51 51 51 51 50 50 49 49 49 49 50 50 51 51 51 51 49 45 43 44 39 31 34 44 47 51 49 51 51 50 46 42 40 38 36 40 39 41 41 36 43 41 37 35 43 39 41 45 47 44 45 46 46
50 51 51 51 51 50 49 49 49 49 50 50 50 51 51 51 50 42 35 48 46 46 37 31 38 42 49 54 51 49 49 46 44 41 40 41 45 39 35 35 45 48 47 46 43 47 44 46 46 46 44 45 47 47
50 50 51 51 50 50 49 49 49 49 49 50 50 50 50 50 43 39 38 42 48 47 38 34 36 42 50 48 48 47 47 46 44 41 39 40 42 41 38 35 46 48 50 49 50 48 45 46 42 45 45 46 48 48
50 50 50 50 50 49 49 49 49 49 49 50 50 50 50 50 47 43 43 50 50 44 42 34 34 36 46 38 40 46 43 44 43 42 42 40 42 41 37 45 47 49 49 49 50 51 48 47 46 45 46 46 45 44
50 50 50 50 49 49 49 49 49 49 49 49 50 50 46 43 42 45 54 51 48 43 36 36 32 29 44 40 40 40 44 39 44 38 39 41 39 36 44 44 47 49 46 47 50 50 49 46 45 44 45 44 43 43
49 50 50 49 49 48 48 48 49 49 49 50 47 44 41 44 54 51 46 42 40 41 40 35 39 35 42 42 40 40 39 40 36 40 45 39 38 47 47 48 50 50 50 49 46 46 45 45 45 44 43 44 44 43
49 50 50 49 49 48 48 48 48 49 50 42 37 37 42 50 43 39 35 37 37 34 37 38 37 37 42 38 37 40 36 37 35 36 39 38 35 44 51 49 51 50 51 50 50 50 49 47 46 45 44 44 44 43
49 49 49 49 47 48 48 48 48 43 41 40 40 41 39 41 39 36 35 40 36 35 38 37 38 38 38 41 40 38 35 38 33 44 40 34 41 47 50 54 50 49 49 50 51 51 51 49 48 47 46 45 44 44
49 49 48 47 46 47 48 48 48 48 46 43 39 36 37 38 29 36 33 33 31 35 37 36 35 37 39 38 35 37 35 36 40 32 37 37 40 45 46 51 50 50 50 50 50 51 50 49 49 47 45 47 45 43
49 48 47 46 46 47 48 48 48 46 41 39 39 27 35 35 37 36 35 35 39 39 39 37 35 35 35 32 34 33 39 36 31 30 31 35 36 40 43 55 53 50 49 50 50 49 49 49 47 48 47 47 45 42
48 46 45 45 46 47 48 48 48 44 40 38 40 29 36 41 41 40 40 38 40 39 37 36 35 35 33 31 37 35 33 30 31 29 32 34 35 40 49 49 50 50 48 49 49 48 48 48 46 45 45 44 46 44
46 45 43 46 47 47 48 47 45 43 42 41 41 38 40 37 37 38 37 36 40 39 38 36 34 32 33 33 32 29 27 26 29 33 34 37 39 42 47 49 49 50 50 49 49 49 49 47 46 45 45 45 45 45
44 41 47 47 48 48 47 43 44 42 42 42 38 41 38 37 36 36 37 37 39 37 32 33 31 30 34 30 28 31 28 32 35 37 38 40 40 41 46 49 50 50 51 52 50 49 48 48 48 46 43 44 45 46
42 44 48 48 46 46 45 43 43 44 40 39 36 38 39 39 37 37 38 39 38 36 36 33 38 29 28 25 26 31 34 37 38 37 38 40 40 42 44 47 49 50 49 51 52 49 49 47 44 43 44 44 44 44
44 45 48 48 46 44 43 43 44 39 40 41 41 41 40 38 39 40 39 39 39 38 36 33 29 27 28 32 32 33 35 35 34 36 38 40 40 40 44 47 49 49 49 48 46 51 48 47 46 45 44 44 41 43
46 47 47 48 46 41 42 42 46 39 36 40 42 39 38 37 38 37 36 36 35 33 30 31 30 31 31 34 36 36 37 38 37 34 35 37 39 39 40 44 45 48 49 49 49 47 50 46 46 46 45 44 43 43
44 46 46 44 42 42 41 42 40 40 40 39 41 39 37 37 35 34 33 35 30 29 27 33 34 36 38 38 40 39 40 39 37 36 35 35 38 38 41 43 45 45 45 46 47 48 48 48 49 46 47 45 45 45
44 47 43 44 42 44 40 43 41 42 40 39 39 39 36 32 33 33 36 30 28 32 33 34 35 36 37 36 40 42 41 41 40 39 38 37 37 37 36 40 42 40 40 40 41 43 48 50 50 50 46 45 45 44
46 45 42 44 40 38 36 44 39 40 36 37 37 37 34 33 35 38 28 26 26 35 38 37 38 37 39 41 42 42 42 41 37 37 36 36 38 38 38 38 40 38 36 37 39 40 42 42 48 51 49 48 45 44
46 41 39 38 37 33 42 38 39 38 38 33 34 35 34 33 36 30 24 31 28 37 37 37 38 37 38 39 37 38 37 38 37 38 37 36 36 36 38 38 39 40 39 39 38 38 40 42 42 48 49 50 48 45
32 32 33 29 38 36 37 37 38 33 35 36 36 34 31 34 26 26 25 24 33 35 36 38 39 37 35 36 37 34 35 34 32 35 37 38 35 35 36 38 39 40 40 37 37 38 38 40 42 44 47 49 47 48
24 33 30 34 34 35 36 34 34 34 35 37 36 36 31 29 28 26 25 30 33 34 31 31 30 32 33 32 31 29 31 33 33 31 36 36 35 32 32 33 33 35 40 39 38 37 38 38 39 41 43 47 40 48
26 28 35 42 40 40 35 38 38 33 35 35 33 32 29 22 21 29 29 31 28 31 33 34 35 33 32 32 33 34 34 34 32 31 33 36 35 35 35 33 32 36 39 39 38 37 37 37 38 39 41 43 46 48
32 36 31 33 35 36 35 35 36 35 37 39 35 33 28 26 25 31 32 34 35 35 35 37 37 36 36 34 33 33 32 33 35 34 32 33 34 35 36 39 40 36 38 38 37 37 37 36 36 37 39 40 42 48
32 35 37 33 35 35 37 36 38 40 43 40 33 29 29 32 32 30 34 35 36 35 34 34 34 37 37 35 34 32 31 29 29 27 26 25 26 29 34 35 38 37 37 36 35 34 35 34 35 37 38 40 42 47
32 38 32 36 33 32 37 40 38 39 39 36 36 36 35 33 36 38 37 35 33 32 33 34 33 33 32 31 31 31 31 27 25 23 21 24 26 31 31 32 35 35 35 34 33 33 33 35 34 36 36 39 40 38
38 38 36 35 36 40 41 42 41 38 37 35 38 34 29 31 33 34 32 32 33 33 32 31 31 32 32 30 29 28 26 30 31 30 26 27 29 29 30 31 33 34 33 32 31 29 29 30 30 29 29 30 31 33
36 36 36 33 33 39 40 37 35 34 32 31 28 29 27 26 22 24 30 31 30 29 29 30 30 30 33 33 33 32 29 30 29 29 30 27 26 27 29 29 31 33 31 29 28 28 26 26 26 27 27 28 28 29
32 36 36 34 31 33 33 34 33 31 31 29 29 30 30 26 24 26 31 32 30 29 25 30 33 34 34 34 33 33 33 33 29 28 27 26 25 25 26 26 27 30 28 26 25 24 24 22 22 22 24 25 26 27

GFSWCAN_sfc_temp_045.txt.gz
Temp
52 52 52 52 52 51 51 51 51 51 51 51 51 51 52 52 52 46 40 40 41 36 37 40 41 33 33 32 28 33 34 35 32 30 34 31 31 32 29 33 26 26 27 29 31 27 24 41 40 33 39 41 43 44
51 51 51 51 51 51 51 51 51 50 50 50 51 51 52 52 52 50 39 42 43 38 35 40 44 46 44 44 40 39 34 38 39 32 34 34 32 32 30 24 37 27 33 31 32 32 40 43 40 43 41 41 44 44
52 52 51 51 51 51 51 51 50 50 50 50 50 51 51 52 52 50 42 45 43 37 33 34 38 45 46 46 51 34 37 44 40 43 37 36 33 36 26 28 29 37 40 34 35 38 37 42 43 45 46 44 46 47
51 52 51 51 51 51 51 50 50 50 50 50 50 51 51 52 52 51 44 45 43 38 31 33 46 45 52 49 45 47 45 43 44 43 39 36 34 40 35 33 34 39 40 37 36 40 42 43 41 44 45 46 46 47
51 51 51 51 51 51 50 50 50 49 50 50 50 51 51 51 51 49 45 42 46 36 31 31 41 45 47 48 47 46 46 43 41 39 38 36 40 38 40 38 35 41 40 35 35 42 40 40 45 45 43 42 45 45
51 51 50 51 51 51 50 50 49 49 50 50 50 51 51 51 50 41 35 44 42 43 36 31 37 40 46 48 46 42 45 41 43 40 40 41 46 39 33 35 42 46 47 45 42 47 45 46 47 45 44 44 46 46
50 50 50 51 51 51 50 50 49 49 50 50 50 50 50 50 46 39 37 41 48 46 37 35 31 40 44 44 42 42 46 42 44 42 39 40 41 40 36 34 42 46 47 48 48 47 44 44 42 45 45 46 47 47
50 49 49 50 50 50 50 49 49 49 49 49 50 50 50 50 48 42 43 48 49 40 41 33 32 34 43 37 39 41 40 43 43 42 42 39 41 40 35 42 45 48 49 48 47 48 45 47 46 45 46 45 44 44
50 49 49 50 50 50 49 49 49 49 49 49 50 51 46 41 41 45 53 51 46 42 34 32 32 29 40 37 37 41 43 38 44 39 39 40 38 35 41 45 44 48 47 44 49 49 48 47 46 45 44 44 42 42
49 49 49 50 50 49 48 48 49 49 49 50 46 45 39 43 53 51 46 42 40 40 40 35 40 33 38 36 39 40 41 39 35 39 44 38 37 41 41 44 46 50 49 48 44 44 44 44 44 44 43 44 44 42
49 49 49 50 50 48 47 47 48 48 48 40 38 39 40 48 42 38 34 37 37 34 37 37 38 35 38 36 36 41 38 36 35 38 37 36 34 36 39 42 46 51 49 49 49 47 45 45 44 43 44 44 44 43
49 49 49 50 49 47 46 47 48 41 39 40 40 40 38 39 37 34 32 38 36 34 38 35 34 35 35 38 38 40 36 39 32 40 39 33 35 37 39 41 44 49 49 49 50 48 47 48 47 45 44 44 43 42
49 49 49 49 47 46 46 48 48 48 46 42 39 36 36 36 28 33 31 31 31 33 35 34 32 33 34 35 32 36 34 33 37 34 33 33 36 38 37 40 44 51 49 49 49 49 49 49 48 46 44 45 43 42
49 49 49 48 47 46 47 48 48 46 40 39 38 27 33 32 33 33 33 34 37 35 36 34 31 31 32 30 33 32 37 37 31 25 27 33 35 36 37 42 49 50 47 47 47 48 48 47 46 46 45 45 44 42
49 49 48 46 46 46 48 48 48 43 40 37 38 28 35 39 39 39 38 37 37 36 34 32 32 32 30 32 34 33 31 24 26 27 31 34 36 36 36 38 46 48 48 46 46 46 46 47 45 44 45 44 44 44
49 47 44 46 46 47 48 47 44 42 41 39 38 36 37 36 35 36 35 34 37 36 34 33 31 31 31 32 28 27 21 24 28 32 34 35 36 36 36 39 45 49 50 47 46 47 46 46 44 43 44 45 44 44
46 41 45 45 47 47 48 42 42 40 39 41 37 39 37 36 35 35 35 35 36 35 31 31 30 23 34 27 23 28 24 30 34 34 35 36 36 35 37 39 44 48 49 49 47 46 45 46 46 43 41 43 44 45
41 43 46 46 46 45 43 42 41 41 38 38 35 38 37 37 36 35 35 35 35 34 33 31 33 25 24 19 24 30 33 36 36 35 36 37 38 37 39 39 43 47 49 49 46 47 46 44 42 41 41 42 42 42
43 44 48 48 45 42 41 41 41 37 39 39 39 39 37 36 37 37 35 35 36 35 33 30 27 27 27 32 31 33 34 33 33 35 38 40 40 39 39 42 44 44 47 47 47 46 45 45 44 42 42 41 40 41
46 47 48 48 47 41 40 40 44 38 36 39 39 37 36 35 36 34 33 33 31 30 29 28 31 31 31 33 36 34 35 38 36 34 35 37 39 40 39 39 40 42 42 42 44 44 47 44 43 46 42 41 40 40
45 45 47 44 42 41 40 40 39 39 39 38 39 38 34 35 33 31 30 32 29 27 25 29 33 35 37 38 38 39 39 39 36 35 34 34 37 38 37 39 40 40 38 38 37 40 41 45 47 46 46 43 42 41
42 47 42 43 40 40 37 41 40 40 39 38 37 38 33 30 30 30 31 28 27 27 30 34 35 36 37 37 39 41 40 40 40 38 37 37 35 35 36 37 38 36 36 37 37 37 39 42 44 45 48 47 42 41
46 45 42 42 38 35 35 43 39 39 36 36 36 35 32 30 32 35 26 23 25 31 37 37 38 38 37 40 42 40 36 35 33 37 37 37 37 38 37 38 39 37 35 36 38 38 38 38 42 44 46 44 45 41
46 40 37 36 35 32 41 37 37 36 36 31 33 33 32 30 32 28 23 21 26 32 36 37 38 37 38 39 36 31 31 31 31 34 37 37 32 33 37 37 38 39 38 38 37 38 38 39 38 41 44 44 46 44
33 32 32 26 37 35 35 35 35 32 34 34 35 32 31 31 25 24 25 23 26 28 35 37 37 37 34 29 29 29 31 29 27 28 33 34 31 32 35 37 38 38 38 35 35 35 36 38 39 39 41 43 42 46
25 32 29 33 33 34 35 32 32 33 34 35 34 34 30 28 29 27 25 25 24 26 29 30 29 29 28 29 27 26 28 29 28 27 28 31 30 29 29 31 32 34 37 37 35 34 34 35 36 37 38 40 38 42
23 27 33 40 38 38 33 36 37 33 33 33 32 31 28 23 24 26 28 29 27 30 32 31 30 29 28 27 28 29 29 29 28 28 29 29 30 31 30 29 30 34 36 36 35 34 33 33 33 34 35 38 40 42
32 35 31 32 33 34 34 33 35 35 35 37 34 32 30 28 27 29 30 32 33 32 32 33 32 32 32 30 30 29 29 29 31 31 29 29 29 30 32 32 34 34 35 36 34 34 33 32 32 33 34 35 38 42
31 34 35 32 33 33 35 35 37 39 41 39 32 30 30 34 30 27 31 33 34 32 30 32 30 34 32 31 30 29 28 26 27 25 23 21 25 26 30 30 32 35 35 34 32 32 31 31 32 33 34 36 39 41
31 35 31 33 33 32 37 39 38 39 38 36 35 34 30 29 31 34 34 33 32 31 30 31 29 31 28 27 26 28 28 24 22 21 17 19 20 26 28 28 28 31 32 31 30 30 29 32 32 32 32 33 32 32
36 36 34 33 35 38 39 39 39 38 37 34 35 31 27 29 33 34 31 29 29 30 31 29 28 29 28 27 27 26 24 27 28 27 23 24 25 25 26 27 27 30 29 29 28 27 25 25 27 27 28 28 29 29
35 34 34 33 32 37 38 35 33 32 31 29 27 28 26 25 24 25 30 29 29 27 26 28 27 26 29 29 29 29 27 26 26 28 28 25 24 26 25 24 25 27 26 24 24 23 22 23 22 22 24 25 27 27
32 35 36 35 31 32 34 34 31 28 30 28 29 30 27 23 19 26 31 29 26 24 24 27 28 28 30 30 30 29 29 29 27 26 25 25 24 24 24 24 25 26 24 21 20 20 18 17 18 18 19 21 22 25

GFSWCAN_sfc_temp_048.txt.gz
Temp
52 52 52 52 52 52 51 51 52 51 51 51 51 51 52 52 52 43 39 42 41 33 35 38 39 33 31 31 25 31 31 34 31 28 32 32 31 30 28 33 27 26 21 28 29 26 21 42 40 33 38 40 42 43
51 51 51 51 51 51 51 51 51 51 51 50 51 51 52 52 52 50 37 42 44 37 34 38 42 44 42 41 33 32 32 33 35 28 29 29 28 30 29 24 33 22 30 26 31 31 41 43 41 44 43 39 43 43
51 52 51 51 51 51 51 51 51 51 50 50 50 51 51 51 52 50 41 44 42 36 33 31 37 42 43 44 44 31 32 37 35 41 36 33 32 36 28 27 26 36 37 34 34 38 37 42 44 42 42 43 44 45
51 52 51 51 51 51 51 51 51 51 50 50 50 50 51 51 52 51 43 44 42 38 30 33 45 41 51 48 45 44 44 39 38 42 38 36 33 39 35 34 34 38 39 36 36 39 38 41 43 44 42 45 45 46
50 51 50 51 51 51 51 51 50 50 50 50 50 51 51 51 51 48 45 43 46 34 31 31 39 42 44 44 46 42 42 37 38 39 38 36 39 38 40 39 36 41 38 36 35 42 41 41 43 46 42 43 44 44
50 50 50 51 51 51 50 50 50 50 50 50 51 51 51 51 50 40 38 40 41 44 35 31 37 39 43 45 43 39 40 37 41 40 39 41 45 39 33 33 41 45 46 45 41 45 44 45 46 46 44 44 45 45
50 49 50 51 50 50 50 50 50 50 49 50 50 50 50 50 46 37 37 42 47 45 36 34 33 39 42 41 39 39 40 42 41 40 39 40 41 41 35 33 40 44 46 47 47 46 42 45 42 46 45 45 46 46
49 49 49 50 49 49 50 50 50 48 48 50 50 50 50 50 48 42 46 48 48 41 40 33 32 34 41 35 34 39 41 42 42 42 42 39 41 40 34 36 39 43 48 48 46 47 44 45 46 46 46 45 44 42
49 49 49 49 49 49 50 50 48 47 48 49 50 51 46 41 40 44 52 50 45 42 33 32 31 26 38 35 35 36 42 38 43 39 39 41 37 32 35 35 37 41 43 45 47 46 46 44 45 44 43 44 42 42
48 49 49 48 49 49 50 48 46 47 48 49 45 41 40 44 52 52 46 41 40 40 39 34 40 31 34 33 33 33 40 38 35 39 43 35 35 39 39 39 40 42 43 46 43 42 43 42 43 43 43 44 43 41
49 49 48 48 49 50 49 46 46 46 48 41 38 39 40 47 44 37 33 37 36 34 37 37 36 31 36 30 32 39 37 37 34 37 37 33 30 35 39 39 41 43 44 46 47 46 45 44 43 43 43 44 42 42
49 49 48 48 49 50 47 46 46 43 40 40 39 40 39 39 37 33 31 37 36 33 38 33 32 34 33 35 37 39 35 38 33 37 36 28 33 37 37 37 39 41 46 47 47 45 45 46 46 44 44 43 42 42
49 48 48 48 49 48 46 46 46 47 46 42 38 37 36 35 26 31 31 31 30 32 33 32 31 30 31 38 32 35 33 32 39 32 31 32 35 37 37 37 39 43 46 48 47 49 48 47 47 45 43 43 43 42
48 48 48 48 49 47 46 46 47 46 40 37 37 28 32 31 32 33 32 32 36 34 34 31 29 29 29 29 34 32 35 34 24 23 25 32 34 35 36 37 39 41 46 47 47 47 47 46 45 45 45 44 43 42
48 48 48 48 47 46 46 46 48 42 38 37 37 28 33 37 36 37 36 35 36 35 32 30 30 30 31 31 32 32 26 21 24 21 30 33 34 35 34 36 38 41 46 47 45 46 47 46 44 43 44 45 44 43
48 48 46 48 47 46 46 47 44 41 39 38 37 35 36 34 34 35 34 33 35 33 31 31 31 30 30 26 22 25 17 20 23 30 33 34 35 34 33 36 39 43 47 46 45 46 46 46 44 44 45 44 44 43
47 42 47 47 46 46 47 42 41 38 38 39 36 38 35 34 35 34 35 35 33 33 30 30 29 26 31 21 22 27 18 25 32 32 34 36 35 35 36 37 40 44 48 47 46 45 45 46 46 45 42 42 44 44
41 44 47 46 45 45 42 41 40 39 36 38 35 36 35 36 35 34 35 33 33 31 31 30 30 26 25 14 19 21 32 34 33 35 35 37 38 38 38 36 40 42 42 43 46 46 44 44 43 42 43 43 44 42
43 45 46 46 45 42 39 39 39 35 38 38 38 37 36 35 35 36 34 33 33 33 32 29 27 20 20 23 27 32 30 31 33 35 37 39 39 39 38 38 39 39 40 41 42 42 45 45 43 43 43 44 42 41
46 45 46 47 46 40 39 38 42 37 35 38 39 36 35 35 35 34 32 31 30 30 29 27 26 26 26 30 35 31 33 37 36 33 34 36 39 39 38 38 37 38 38 39 40 40 42 42 44 45 44 43 43 41
44 45 46 44 41 41 38 38 38 38 37 36 38 37 32 34 33 31 30 30 29 26 25 27 28 31 37 36 33 36 38 36 33 35 33 33 35 37 38 38 39 38 36 36 36 37 39 39 41 43 44 46 45 43
42 46 41 43 40 40 36 40 38 39 37 36 36 37 32 31 31 30 30 28 27 26 27 30 33 37 32 33 39 38 33 33 32 38 37 37 33 34 35 37 37 35 35 35 35 36 37 39 40 42 44 45 43 44
45 44 41 41 37 33 33 42 37 37 34 34 35 34 32 31 30 33 27 26 24 29 32 33 37 38 33 39 39 34 32 31 29 32 35 36 35 35 35 37 37 35 33 34 36 36 36 36 39 40 43 44 44 42
46 39 36 35 34 30 39 36 36 35 34 31 33 32 32 30 31 28 24 23 25 29 32 35 34 33 33 37 29 28 28 28 27 30 33 32 31 32 33 35 37 37 35 36 35 35 36 36 36 39 41 42 43 42
33 33 32 26 35 34 34 34 34 32 33 33 33 30 30 31 26 26 26 22 26 27 30 33 33 33 28 27 27 27 29 26 26 26 30 30 28 30 30 33 35 37 36 33 33 33 34 35 35 36 37 39 39 40
26 32 29 32 32 33 34 32 32 32 33 33 33 32 30 29 29 28 27 25 24 27 28 30 28 27 26 27 26 26 27 26 26 26 26 27 27 26 26 27 28 32 36 35 33 32 32 33 33 33 34 35 35 39
23 27 32 39 37 37 33 35 35 32 33 32 31 30 29 24 26 27 28 29 28 30 32 31 30 29 27 26 27 28 28 28 28 29 28 27 27 28 27 26 27 31 35 35 33 32 30 30 30 31 32 34 36 38
31 34 30 32 32 33 33 33 34 34 34 35 33 32 30 28 26 28 30 32 33 33 32 32 32 31 29 29 28 28 28 28 30 29 28 29 30 29 29 29 31 32 34 33 32 32 30 29 29 31 32 33 35 38
31 33 35 31 33 31 34 35 35 37 39 37 32 30 29 31 29 27 30 32 33 32 29 28 28 31 29 28 28 27 28 26 28 26 24 21 22 25 28 28 29 32 32 31 30 30 29 29 30 31 32 33 34 34
31 35 31 32 32 32 36 38 36 36 36 35 34 32 31 28 30 32 32 32 31 28 29 31 28 30 26 26 25 27 27 25 23 22 19 20 21 25 26 26 27 29 28 28 27 27 27 28 28 29 30 30 30 30
35 34 33 32 34 37 35 37 37 36 34 32 33 30 28 28 30 32 27 27 30 31 30 27 26 27 27 26 26 25 24 26 28 27 24 25 26 26 26 26 25 26 27 26 25 24 24 24 25 24 24 25 26 27
34 33 33 33 30 35 37 34 31 30 30 29 28 30 27 26 24 26 28 29 27 26 25 26 26 26 27 27 27 26 25 26 26 27 27 26 25 26 24 24 24 26 25 24 23 22 22 21 21 21 22 23 24 24
32 34 35 34 31 32 34 32 28 28 29 28 28 29 26 24 19 25 30 27 26 27 25 26 26 27 29 29 28 27 26 27 26 25 24 24 23 24 24 24 26 26 23 21 20 19 17 16 17 16 17 17 19 21